Flag for Cote d'Ivoire (Ivory Coast) Weather past 2 weeks in Abidjan, Cote d'Ivoire (Ivory Coast)

Now
77 °F

Partly cloudy.


Feels Like: 78 °F
Forecast: N/A
Wind: 7 mph from Southwest

Location: Abidjan Airport

Current Time: Aug 1, 2014 at 11:04:47 PM

Latest Report: Aug 1, 2014 at 10:30 PM


Visibility: N/A

Pressure: 29.98 "Hg

Humidity: 94%

Dew point: 75 °F

Location of AbidjanLocation

Historic Weather in Abidjan — Graph

°F

Abidjan temperature yesterday

Maximum temperature yesterday: 81 °F (at 10:00 AM)
Minimum temperature yesterday: 77 °F (at 12:00 AM)
Average temperature yesterday: 78 °F

Past Weeks' High & Low Weather Summary

 TemperatureHumidityPressure
High82 °F (Jul 18, 11:30 AM)100% (Jul 17, 11:30 PM)30.04 "Hg (Jul 17, 11:30 PM)
Low73 °F (Jul 25, 8:30 PM)74% (Jul 18, 12:00 PM)29.86 "Hg (Jul 23, 3:00 PM)
Average78 °F88%29.95 "Hg
* Reported Jul 17 10:00 PM — Aug 1 10:00 PM, Abidjan, Weather by CustomWeather, © 2014

Note: Actual official high and low records may vary slightly from our data, if they occured in-between our weather recording intervals... More about our weather records

Advertising

Abidjan weather history for previous 24 hours

 ConditionsComfort  
Time TempWeatherWind HumidityBarometerVisibility
10:00 PM
Aug 1
77 °FPassing clouds.8 mph94%29.98 "HgN/A
9:30 PM77 °FPartly cloudy.7 mph94%29.95 "HgN/A
9:00 PM77 °FPartly cloudy.8 mph94%29.95 "HgN/A
8:30 PM77 °FPassing clouds.8 mph94%29.95 "HgN/A
8:00 PM77 °FPassing clouds.9 mph94%29.95 "HgN/A
7:30 PM77 °FPassing clouds.7 mph94%29.95 "HgN/A
7:00 PM77 °FPassing clouds.6 mph94%29.95 "HgN/A
6:30 PM79 °FScattered clouds.7 mph89%29.92 "HgN/A
6:00 PM79 °FPartly sunny.9 mph84%29.95 "HgN/A
5:30 PM79 °FPartly sunny.12 mph84%29.95 "HgN/A
5:00 PM79 °FPartly sunny.10 mph89%29.92 "HgN/A
4:30 PM81 °FPartly sunny.12 mph84%29.95 "HgN/A
4:00 PM81 °FScattered clouds.12 mph84%29.92 "HgN/A
3:30 PM82 °FScattered clouds.13 mph74%29.92 "HgN/A
3:00 PM81 °FScattered clouds.13 mph84%29.92 "HgN/A
2:30 PM82 °FScattered clouds.13 mph79%29.92 "HgN/A
2:00 PM81 °FScattered clouds.12 mph79%29.95 "HgN/A
1:30 PM82 °FScattered clouds.12 mph74%29.95 "HgN/A
1:00 PM82 °FScattered clouds.12 mph74%29.95 "HgN/A
9:30 AM81 °FScattered clouds.9 mph79%30.01 "Hg5 mi
9:00 AM79 °FScattered clouds.6 mph89%30.01 "Hg5 mi
8:30 AM79 °FScattered clouds.5 mph89%29.98 "Hg5 mi
8:00 AM77 °FScattered clouds.5 mph94%29.98 "Hg5 mi
7:30 AM75 °FScattered clouds.2 mph100%29.98 "Hg5 mi
7:00 AM75 °FScattered clouds.6 mph94%29.98 "Hg5 mi
6:30 AM75 °FScattered clouds.7 mph94%29.95 "Hg5 mi
6:00 AM75 °FPassing clouds.6 mph94%29.95 "Hg5 mi
5:30 AM75 °FPassing clouds.7 mph100%29.98 "Hg5 mi
5:00 AM77 °FPassing clouds.7 mph89%29.95 "Hg5 mi
4:30 AM75 °FPassing clouds.9 mph94%29.95 "HgN/A
4:00 AM75 °FPassing clouds.9 mph94%29.95 "HgN/A
3:30 AM77 °FPassing clouds.9 mph94%29.95 "HgN/A
3:00 AM77 °FPassing clouds.9 mph94%29.95 "HgN/A
2:30 AM77 °FPassing clouds.6 mph94%29.98 "HgN/A
2:00 AM77 °FPassing clouds.8 mph89%29.98 "HgN/A
1:30 AM77 °FPartly cloudy.7 mph89%29.98 "Hg5 mi
1:00 AM77 °FPartly cloudy.6 mph94%29.98 "Hg5 mi
12:30 AM77 °FPartly cloudy.6 mph89%29.98 "Hg5 mi
12:00 AM77 °FPartly cloudy.6 mph94%29.98 "Hg5 mi
11:30 PM
Jul 31
77 °FPartly cloudy.6 mph89%29.98 "Hg5 mi
11:00 PM77 °FPartly cloudy.7 mph94%29.98 "Hg5 mi
Weather by CustomWeather, © 2014

See weather overviewHow to use our weather pages